Back to catalog

STARLINK-33729

AliveCommunicationsVLEO
NORAD 63647·PAYLOAD·🇺🇸 United States

Launched Apr 25, 2025 from Cape Canaveral Space Force Station

Loading…

Next Passes (next 24 hours)

TLE

FreshSource: CelesTrak SupGP

Epoch: Sep 14, 2026, 21:28 UTC

1 63647C 25083P   26257.89493056  .00025634  00000+0  92846-3 0  2578
2 63647  43.0041  17.0108 0001474 273.0293 298.2201 15.27566188    13

Track STARLINK-33729 in real time with AllMySat

Download on the App Store